This site uses a module created by best online poker sites.

BSB police report ending October 17, 2017

"10/16/2017","00:05","217CR0026927","T/S","T/S","FARRELL AND HOWARD","",""
"10/16/2017","00:14","217CR0026928","MEDICAL - EMERGENCY","MEDICAL - EMERGENCY","2813 SILVERBOW BLVD","",""
"10/16/2017","01:02","217CR0026929","DISTURBANCE","PFMA - REASONABLE APPREHENSION","521 1/2 W SILVER","ARREST(s) MADE",""
"10/16/2017","01:38","217CR0026930","ALARM - BURGLARY","ALARM - BURGLARY","************","",""
"10/16/2017","02:01","217CR0026931","SUSPICIOUS ACTIVITY","SUSPICIOUS ACTIVITY","WATERLINE RD AND HOPE RD","",""
"10/16/2017","02:16","217CR0026932","BUSINESS CHECK","BUSINESS CHECK","531 S MONTANA/TOWN PUMP","",""
"10/16/2017","02:44","217CR0026933","DISTURBANCE","ASSAULT, SIMPLE","507 S MAIN","ARREST(s) MADE",""
"10/16/2017","02:45","217CR0026934","DISTURBANCE","CRIMINAL CONTEMPT","2114 WALNUT","ARREST(s) MADE",""
"10/16/2017","05:00","217CR0026935","SUSPICIOUS ACTIVITY","SUSPICIOUS ACTIVITY","2825 ELM","",""
"10/16/2017","05:47","217CR0026936","OPEN BUILDING","OPEN BUILDING","333 E BROADWAY BROADWAY STORAG","",""
"10/16/2017","05:54","217CR0026937","UNKNOWN PROBLEM","UNKNOWN PROBLEM","211 SILVERBOW HOMES","",""
"10/16/2017","06:13","217CR0026938","UNKNOWN PROBLEM","UNKNOWN PROBLEM","211 SILVER BOW HOMES","",""
"10/16/2017","07:01","217CR0026939","ACCIDENT","ACCIDENT","PARK // EXCESLIOR","",""
"10/16/2017","07:05","217CR0026940","SUSPICIOUS ACTIVITY","SUSPICIOUS ACTIVITY","1955 OREGON","",""
"10/16/2017","07:37","217CR0026941","DISTURBANCE","DISTURBANCE","400 S CLARK","",""
"10/16/2017","08:02","217CR0026942","ACCIDENT","FAIL TO STOP WHEN EMERGING","AMHERST AND THOMAS","",""
"10/16/2017","08:16","217CR0026943","ASSAULT","ASSAULT","************","",""
"10/16/2017","08:18","217CR0026944","MEDICAL - EMERGENCY","MEDICAL - EMERGENCY","2920 ELM ST","",""
"10/16/2017","08:43","217CR0026945","CIVIL PAPER SERVICE","CIVIL PAPER SERVICE","3519 S WARREN","",""
"10/16/2017","08:47","217CR0026946","CIVIL PAPER SERVICE","CIVIL PAPER SERVICE","3901 HARRISON AVE","",""
"10/16/2017","08:50","217CR0026947","CIVIL PAPER SERVICE","CIVIL PAPER SERVICE","314 W COPPER","",""
"10/16/2017","09:01","217CR0026948","DISTURBANCE","DISTURBANCE","1301 HARRISON AVE","",""
"10/16/2017","09:11","217CR0026949","HARASSMENT","HARASSMENT","3106 FLORAL BLVD","",""
"10/16/2017","09:19","217CR0026951","DETENTION BUSINESS","DETENTION BUSINESS","************","",""
"10/16/2017","09:19","217CR0026950","CIVIL PAPER SERVICE","CIVIL PAPER SERVICE","600 S MAIN ST","",""
"10/16/2017","09:22","217CR0026952","CIVIL PAPER SERVICE","CIVIL PAPER SERVICE","708 MAJORS","",""
"10/16/2017","09:53","217CR0026953","T/S","T/S @ PARROT AND ROWE RD","PARROT AND ROWE RD","",""
"10/16/2017","10:05","217CR0026954","ALL OTHER","ALL OTHER","119130 GERMAN GULCH ROAD","",""
"10/16/2017","10:32","217CR0026955","T/S","T/S","1000 BLK W PARK","",""
"10/16/2017","10:35","217CR0026956","MEDICAL - EMERGENCY","MEDICAL - EMERGENCY","2422 ARGYLE","",""
"10/16/2017","10:38","217CR0026957","SUSPICIOUS ACTIVITY","SUSPICIOUS ACTIVITY","2710 PARROT","",""
"10/16/2017","11:04","217CR0026958","HARASSMENT","HARASSMENT","3120 FLORAL","",""
"10/16/2017","11:24","217CR0026959","CIVIL PAPER SERVICE","CIVIL PAPER SERVICE","2815 LOCUST ST","",""
"10/16/2017","11:27","217CR0026960","THEFT","THEFT, ALL OTHERS","333 E BROADWAY/BROADWAY MINI","",""
"10/16/2017","11:32","217CR0026961","CIVIL PAPER SERVICE","CIVIL PAPER SERVICE","2220 WALL ST","",""
"10/16/2017","11:35","217CR0026962","CITIZEN AID","CITIZEN AID","400 S CLARK","",""
"10/16/2017","11:35","217CR0026963","CIVIL PAPER SERVICE","CIVIL PAPER SERVICE","2815 LOCUST","",""
"10/16/2017","11:45","217CR0026965","DETENTION BUSINESS","DETENTION BUSINESS","************","",""
"10/16/2017","11:45","217CR0026964","CIVIL PAPER SERVICE","CIVIL PAPER SERVICE","3615 WYNNE AVE","",""
"10/16/2017","11:52","217CR0026966","MEDICAL - EMERGENCY","MEDICAL - EMERGENCY","2068 CAROLINA","",""
"10/16/2017","11:53","217CR0026967","THEFT","THEFT","701 CENTENNIAL AVE","",""
"10/16/2017","12:00","217CR0026968","CITIZEN AID","CITIZEN AID","3901 HARRISON AVE","",""
"10/16/2017","12:06","217CR0026969","INFORMATION ONLY","INFORMATION ONLY","750 S UTAH EVANS TRANSP","",""
"10/16/2017","12:11","217CR0026970","ASSAULT","ASSAULT, SIMPLE","2600 GRAND AVE","ARREST(s) MADE",""
"10/16/2017","12:26","217CR0026971","DISTURBANCE","DISTURBANCE","GRANITE MTN RD","",""
"10/16/2017","12:38","217CR0026972","MEDICAL - EMERGENCY","MEDICAL - EMERGENCY","714 E SECOND ST","",""
"10/16/2017","12:40","217CR0026973","HARASSMENT","HARASSMENT","472 N EXCELSIOR","",""
"10/16/2017","12:59","217CR0026974","SUSPICIOUS ACTIVITY","SUSPICIOUS ACTIVITY","DEWEY AND HARRISON","",""
"10/16/2017","13:19","217CR0026975","MEDICAL - EMERGENCY","MEDICAL - EMERGENCY","100 GARDENS WY","",""
"10/16/2017","13:23","217CR0026976","ATL","ATL","HARRISON AND GILMAN","",""
"10/16/2017","13:39","217CR0026977","THEFT","THEFT, SHOPLIFT","3901 HARRISON AVE","",""
"10/16/2017","13:59","217CR0026978","DISTURBANCE","DISTURBANCE","520 S IDAHO ST","",""
"10/16/2017","14:08","217CR0026979","CIVIL PAPER SERVICE","CIVIL PAPER SERVICE","3901 HARRISON AVE","",""
"10/16/2017","14:12","217CR0026980","THEFT","THEFT","225 N ALASKA","",""
"10/16/2017","14:39","217CR0026981","ALARM - BURGLARY","ALARM - BURGLARY","************","",""
"10/16/2017","14:42","217CR0026982","PARKING COMPLAINT","PARKING COMPLAINT","53 W PARK ST","",""
"10/16/2017","14:44","217CR0026983","WELFARE CHECK","WELFARE CHECK","1700 CIVIC CENTER RD","",""
"10/16/2017","15:22","217CR0026984","ALL OTHER","ALL OTHER","207 S EXCELSIOR","",""
"10/16/2017","15:33","217CR0026985","WELFARE CHECK","WELFARE CHECK","710 1/2 W PARK","",""
"10/16/2017","16:01","217CR0026986","THEFT","THEFT","225 N ALASKA","",""
"10/16/2017","16:13","217CR0026987","HARASSMENT","HARASSMENT","CLARKS PARK","",""
"10/16/2017","16:19","217CR0026988","HARASSMENT","HARASSMENT","155 W GRANITE/JUSTICE COURT","",""
"10/16/2017","16:20","217CR0026990","ANIMAL COMPLAINT","ANIMAL COMPLAINT","616 S WASHINGTON","",""
"10/16/2017","16:36","217CR0026992","SUICIDE ATTEMPT/THREAT","SUICIDE ATTEMPT/THREAT","************","",""
"10/16/2017","17:08","217CR0026993","MEDICAL - ASSIST","MEDICAL - ASSIST","************","",""
"10/16/2017","17:10","217CR0026994","ALARM - BURGLARY","ALARM - BURGLARY","************","",""
"10/16/2017","17:27","217CR0026995","ALL OTHER","ALL OTHER","1826 HARRISON AVE","",""
"10/16/2017","17:31","217CR0026996","DISTURBANCE","DISTURBANCE","924 S COLORADO","",""
"10/16/2017","17:41","217CR0026997","W/PRISONER","W/PRISONER","1004 MISSOULA AVE","",""
"10/16/2017","17:49","217CR0026998","ALL OTHER","ALL OTHER","1330 JOY LANE","",""
"10/16/2017","18:20","217CR0026999","T/S","NO LIABILITY INSURANCE IN EFF.","HARRISON AND HOLMES","",""
"10/16/2017","18:25","217CR0027000","BURGLARY","BURGLARY, NON-RESIDENCE","1120 GRIZZLY TRAIL","",""
"10/16/2017","18:37","217CR0027001","ANIMAL COMPLAINT","ANIMAL COMPLAINT","1835 STUART AVE","",""
"10/16/2017","18:45","217CR0027002","SUSPICIOUS ACTIVITY","SUSPICIOUS ACTIVITY","ALABAMA ST AND HORNET ST","",""
"10/16/2017","19:03","217CR0027003","CITIZEN AID","CITIZEN AID","213 BAVARIA","",""
"10/16/2017","19:07","217CR0027004","ALL OTHER","ALL OTHER","1701 1/2 S WARREN","",""
"10/16/2017","19:09","217CR0027005","ATL","ATL","LEXINGTON // ROWE ROAD","",""
"10/16/2017","19:22","217CR0027006","ALL OTHER","ALL OTHER","I90 MM217 WBND","",""
"10/16/2017","19:37","217CR0027007","WELFARE CHECK","WELFARE CHECK","1827 OREGON","",""
"10/16/2017","19:42","217CR0027008","THEFT","THEFT","PARK ST AND WASHINGTON ST","",""
"10/16/2017","19:46","217CR0027009","CIVIL PAPER SERVICE","CIVIL PAPER SERVICE","808 SILVERBOW HOMES","",""
"10/16/2017","20:00","217CR0027010","VANDALISM/CRIMINAL MISCHIEF","BURGLARY, NON-RESIDENCE","18 N MONTANA","",""
"10/16/2017","20:31","217CR0027011","JUVENILE MISC","JUVENILE MISC","************","",""
"10/16/2017","20:45","217CR0027012","ACCIDENT","ACCIDENT","CIVIC CENTER PARKING LOT","",""
"10/16/2017","20:57","217CR0027013","MEDICAL - EMERGENCY","MEDICAL - EMERGENCY","1515 OREGON APT 208","",""
"10/16/2017","21:14","217CR0027014","WELFARE CHECK","WELFARE CHECK","1125 S MAIN ST APT 205","",""
"10/16/2017","21:32","217CR0027015","SUSPICIOUS ACTIVITY","SUSPICIOUS ACTIVITY","931 N MAIN","",""
"10/16/2017","21:41","217CR0027016","CITIZEN AID","CITIZEN AID","225 N ALASKA","",""
"10/16/2017","21:54","217CR0027017","INTOXICATED PERSON","INTOXICATED PERSON","531 S MONTANA","",""
"10/16/2017","21:57","217CR0027018","ANIMAL COMPLAINT-BITE","ANIMAL COMPLAINT-BITE","83 HECLA","",""
"10/16/2017","22:16","217CR0027019","T/S","OUT OF JURISDICTION - MISD","400 BLK CENTENIAL AVE","",""
"10/16/2017","22:25","217CR0027020","HARASSMENT","HARASSMENT","1436 SUNSET","",""
"10/16/2017","22:38","217CR0027021","ASSAULT","ASSAULT PEACE OFFC -  NO INJ","155 W QUARTZ BSB DETENTION CEN","ARREST(s) MADE",""
"10/16/2017","22:50","217CR0027022","MEDICAL - EMERGENCY","MEDICAL - EMERGENCY","600 BLK W PARK","",""
"10/16/2017","22:58","217CR0027023","BUSINESS CHECK","BUSINESS CHECK","916 E FRONT","",""
"10/16/2017","23:09","217CR0027024","T/S","T/S","MARYLAND AND DEWEY","",""
"10/16/2017","23:15","217CR0027025","INFORMATION ONLY","INFORMATION ONLY","225 N ALASKA","",""
"10/17/2017","00:20","217CR0027026","BUSINESS CHECK","CRIMINAL CONTEMPT","531 S MONTANA/TOWN PUMP","ARREST(s) MADE",""
"10/17/2017","01:21","217CR0027027","SUSPICIOUS ACTIVITY","POSSESS DRUG PARAPHERNALIA","520 HOLMES RED WRECKER","",""
"10/17/2017","01:29","217CR0027028","T/S","T/S","HARVARD AND HARRISON","",""
"10/17/2017","01:38","217CR0027029","ILLEGAL SHOOTING","ILLEGAL SHOOTING","1125 S MAIN ROSALIE MANOR","",""
"10/17/2017","01:57","217CR0027030","BUSINESS CHECK","BUSINESS CHECK","FLYING J IN ROCKER","",""
"10/17/2017","02:22","217CR0027031","T/S","T/S","S DAKOTA AND MONTANA","",""
"10/17/2017","02:28","217CR0027032","SUSPICIOUS ACTIVITY","SUSPICIOUS ACTIVITY","1900 S MONTANA THRIFTWAY","",""
"10/17/2017","03:16","217CR0027034","BUSINESS CHECK","BUSINESS CHECK","1370 HARRISON/TOWN PUMP","",""
"10/17/2017","06:43","217CR0027035","MEDICAL - EMERGENCY","MEDICAL - EMERGENCY","1023 S UTAH","",""
"10/17/2017","06:49","217CR0027036","VANDALISM/CRIMINAL MISCHIEF","VANDALISM/CRIMINAL MISCHIEF","2600 AMHERST","",""
"10/17/2017","07:30","217CR0027037","FOUND PROPERTY","FOUND PROPERTY","************","",""
"10/17/2017","07:34","217CR0027038","WELFARE CHECK","WELFARE CHECK","800 S UTAH","",""
"10/17/2017","08:01","217CR0027039","T/S","T/S @ GRAND AND MONROE","GRAND AND MONROE","",""
 

BSB police report ending October 16, 2017

"10/13/2017","00:06","217CR0026687","BUSINESS CHECK","BUSINESS CHECK","3700 HARRISON AVE","",""
"10/13/2017","00:38","217CR0026688","T/S","STOP SIGN VIOLATION","TEXAS AND LOCUST","",""
"10/13/2017","00:42","217CR0026689","ALL OTHER","ALL OTHER","","",""
"10/13/2017","00:45","217CR0026690","DISTURBANCE","DISTURBANCE","817 S DAKOTA","",""
"10/13/2017","01:08","217CR0026691","MEDICAL - EMERGENCY","MEDICAL - EMERGENCY","207 W PARK LINCOLN MOTEL","",""
"10/13/2017","02:30","217CR0026692","ASSIST OTHER AGENCY","ASSIST OTHER AGENCY","155 W QUARTZ","",""
"10/13/2017","02:31","217CR0026693","DISTURBANCE","DISTURBANCE","60 E BROADWAY ACOMA LOUNGE","",""
"10/13/2017","02:57","217CR0026694","DISTURBANCE-NOISE","DISTURBANCE-NOISE","60 E BROADWAY ACOMA LOUNGE","",""
"10/13/2017","03:01","217CR0026695","T/S","T/S","45 THREE BEARS WAY 3 BEARS ALA","",""
"10/13/2017","03:52","217CR0026696","LOST OR STOLEN PROPERTY","LOST OR STOLEN PROPERTY","1831 FARRAGUT","",""
"10/13/2017","06:28","217CR0026697","MEDICAL - EMERGENCY","MEDICAL - EMERGENCY","721 HOBSON #4","",""
"10/13/2017","06:45","217CR0026698","LED BUSINESS","LED BUSINESS","155 W GRANITE","",""
"10/13/2017","07:18","217CR0026699","ALARM - MEDICAL","ALARM - MEDICAL","************","",""
"10/13/2017","07:19","217CR0026700","ANIMAL COMPLAINT","ANIMAL COMPLAINT","550 E MERCURY MAC CENTER","",""
"10/13/2017","07:21","217CR0026701","THEFT","THEFT LOST OR MISLAID PROPERTY","520 W PARK","",""
"10/13/2017","07:56","217CR0026702","CIVIL PAPER SERVICE","CIVIL PAPER SERVICE","2030 LOCUST","",""
"10/13/2017","07:57","217CR0026703","CIVIL PAPER SERVICE","CIVIL PAPER SERVICE","2815 LOCUST","",""
"10/13/2017","08:03","217CR0026704","CIVIL PAPER SERVICE","CIVIL PAPER SERVICE","715 ZARELDA","",""
"10/13/2017","08:09","217CR0026705","CIVIL PAPER SERVICE","CIVIL PAPER SERVICE","79 MISSOULA","",""
"10/13/2017","08:11","217CR0026706","LED BUSINESS","LED BUSINESS","155 W GRAINTE","",""
"10/13/2017","08:11","217CR0026707","SUSPICIOUS ACTIVITY","SUSPICIOUS ACTIVITY","ARIZONA AND SECOND","",""
"10/13/2017","08:12","217CR0026708","CIVIL PAPER SERVICE","CIVIL PAPER SERVICE","105 RAM","",""
"10/13/2017","08:17","217CR0026709","CIVIL PAPER SERVICE","CIVIL PAPER SERVICE","1475 SAGE","",""
"10/13/2017","08:18","217CR0026710","CIVIL PAPER SERVICE","CIVIL PAPER SERVICE","3315 CARTER","",""
"10/13/2017","08:18","217CR0026711","DRUGS","DRUGS","************","",""
"10/13/2017","08:26","217CR0026712","CIVIL PAPER SERVICE","CIVIL PAPER SERVICE","436 S MAIN ST","",""
"10/13/2017","08:43","217CR0026713","THEFT","THEFT, ALL OTHERS","2400 CONTINENTAL","",""
"10/13/2017","08:48","217CR0026714","FRAUD","FRAUD","39 W LAPLATTE","",""
"10/13/2017","08:49","217CR0026715","CIVIL PAPER SERVICE","CIVIL PAPER SERVICE","800 S EMMET WEST ELEMENTARY","",""
"10/13/2017","08:50","217CR0026716","JUVENILE MISC","JUVENILE MISC","************","",""
"10/13/2017","08:52","217CR0026717","CIVIL PAPER SERVICE","CIVIL PAPER SERVICE","2220 WALL ST","",""
"10/13/2017","08:54","217CR0026718","ALARM - BURGLARY","ALARM - BURGLARY","************","",""
"10/13/2017","08:59","217CR0026719","INFORMATION ONLY","INFORMATION ONLY","119130 GERMAN GULCH RD","",""
"10/13/2017","09:17","217CR0026720","THEFT","THEFT","2100 HARRISON AV","",""
"10/13/2017","09:18","217CR0026721","CIVIL PAPER SERVICE","CIVIL PAPER SERVICE","2230 CROSS DR","",""
"10/13/2017","10:12","217CR0026722","ANIMAL COMPLAINT","ANIMAL COMPLAINT","20 LAIRD","",""
"10/13/2017","10:13","217CR0026723","ALL OTHER","ALL OTHER","715 ZARELDA","",""
"10/13/2017","10:15","217CR0026724","ALL OTHER","ALL OTHER","HARRISON AND LONGFELLOW","",""
"10/13/2017","10:42","217CR0026725","BURGLARY","THEFT FROM MOTOR VEHICLE","710 1/2 W PART ST","",""
"10/13/2017","11:09","217CR0026726","HARASSMENT","HARASSMENT","1538 ELM ST","",""
"10/13/2017","11:27","217CR0026727","UNWANTED PERSON","UNWANTED PERSON","************","",""
"10/13/2017","11:30","217CR0026728","MEDICAL - EMERGENCY","MEDICAL - EMERGENCY","429 S EXCELSIOR","",""
"10/13/2017","11:31","217CR0026729","ACCIDENT","ACCIDENT","NETTIE AND HANCOCK","",""
"10/13/2017","11:39","217CR0026730","ACCIDENT","ACCIDENT","COLORADO ST AND MERCURY ST","",""
"10/13/2017","11:44","217CR0026731","ACCIDENT- INJURY(MHP)","ACCIDENT- INJURY(MHP)","CONTINENTAL // HOLIDAY DR","",""
"10/13/2017","11:56","217CR0026732","THEFT","THEFT FROM MOTOR VEHICLE","1112 S WYOMING","",""
"10/13/2017","12:00","217CR0026733","ACCIDENT-MHP","ACCIDENT-MHP","I90 MM 211","",""
"10/13/2017","12:04","217CR0026734","ACCIDENT-MHP","ACCIDENT-MHP","I 90 MM 229","",""
"10/13/2017","12:55","217CR0026735","RESTRAINING ORDER VIOLATION","RESTRAINING ORDER VIOLATION","************","",""
"10/13/2017","12:57","217CR0026736","CIVIL PAPER SERVICE","CIVIL PAPER SERVICE","705 KENWOOD AVE","",""
"10/13/2017","13:10","217CR0026738","CIVIL PAPER SERVICE","CIVIL PAPER SERVICE","1035 S UTAH","",""
"10/13/2017","13:19","217CR0026739","FRAUD","FRAUD","225 N ALASKA","",""
"10/13/2017","13:30","217CR0026741","CITIZEN AID","CITIZEN AID","MM 214 I90 E BND","",""
"10/13/2017","13:32","217CR0026742","RESTRAINING ORDER VIOLATION","RESTRAINING ORDER VIOLATION","************","",""
"10/13/2017","13:50","217CR0026743","ASSIST OTHER AGENCY","POSSESSION OF DANGEROUS DRUGS","BOARDMAN AND N MONTANA","ARREST(s) MADE",""
"10/13/2017","14:06","217CR0026744","BUSINESS CHECK","BUSINESS CHECK","FLYING J BROWNS GULCH RD","",""
"10/13/2017","14:28","217CR0026745","THEFT","THEFT, SHOPLIFT","2708 HARRISON AVE","",""
"10/13/2017","14:29","217CR0026746","THEFT","THEFT","225 N ALASKA","",""
"10/13/2017","14:38","217CR0026747","CIVIL STANDBY","CIVIL STANDBY","531 S IDAHO","",""
"10/13/2017","14:45","217CR0026748","ASSIST OTHER AGENCY","ASSIST OTHER AGENCY","15 S WYANT","",""
"10/13/2017","15:07","217CR0026749","ASSIST OTHER AGENCY","ASSIST OTHER AGENCY","I90 EB MM 230","",""
"10/13/2017","15:13","217CR0026750","ATL","ATL","GRAND AVE AND TEXAS AVE","",""
"10/13/2017","15:16","217CR0026751","INTIMIDATION","INTIMIDATION","3400 HILL APT 601","",""
"10/13/2017","15:17","217CR0026752","ALL OTHER","ALL OTHER","MONTANA AND ROWE TOWN PUMP","",""
"10/13/2017","15:24","217CR0026753","ACCIDENT- INJURY(MHP)","ACCIDENT- INJURY(MHP)","I15 MM 111 SB","",""
"10/13/2017","15:36","217CR0026754","MEDICAL - EMERGENCY","MEDICAL - EMERGENCY","279 VERNON HEIGHTS ROAD","",""
"10/13/2017","16:52","217CR0026759","THEFT","THEFT FROM MOTOR VEHICLE","BUTTE AREA","",""
"10/13/2017","17:27","217CR0026760","ALL OTHER","ALL OTHER","1706 SILVERBOW HOMES","",""
"10/13/2017","18:38","217CR0026761","THEFT","THEFT, SHOPLIFT","2500 MASSACHUSETTS AVE","",""
"10/13/2017","18:45","217CR0026762","MEDICAL - EMERGENCY","MEDICAL - EMERGENCY","155 W QUARTZ","",""
"10/13/2017","18:46","217CR0026763","T/S","T/S","DEWEY BLVD AND OREGON","",""
"10/13/2017","19:02","217CR0026764","UNWANTED PERSON","UNWANTED PERSON","************","",""
"10/13/2017","19:41","217CR0026766","UNWANTED PERSON","UNWANTED PERSON","************","",""
"10/13/2017","19:59","217CR0026767","UNWANTED PERSON","UNWANTED PERSON","************","",""
"10/13/2017","20:20","217CR0026768","UNKNOWN PROBLEM","UNKNOWN PROBLEM","122005 NISSLER RD/ECONOLODGE","",""
"10/13/2017","20:45","217CR0026769","MEDICAL - EMERGENCY","POSSESSION OF DANGEROUS DRUGS","631 S MONTANA","",""
"10/13/2017","21:06","217CR0026770","CITIZEN AID","CITIZEN AID","631 S DAKOTA","",""
"10/13/2017","21:26","217CR0026771","FIRE- GAS ODOR","FIRE- GAS ODOR","316 W PARK ST","",""
"10/13/2017","21:40","217CR0026772","ANIMAL COMPLAINT","ANIMAL COMPLAINT","MONTANA AND PACIFIC","",""
"10/13/2017","21:48","217CR0026773","ATL","ATL","BURLINGTON AND WHITEWAY","",""
"10/13/2017","21:52","217CR0026774","ASSIST OTHER AGENCY","ASSIST OTHER AGENCY","ALUMINUM ST AND IDAHO ST","",""
"10/13/2017","21:57","217CR0026775","MEDICAL - EMERGENCY","MEDICAL - EMERGENCY","436 S MAIN ST","",""
"10/13/2017","22:20","217CR0026776","DOMESTIC ABUSE","DOMESTIC ABUSE","************","",""
"10/13/2017","22:34","217CR0026777","SUSPICIOUS ACTIVITY","SUSPICIOUS ACTIVITY","109 MISSOULA AVE","",""
"10/13/2017","23:06","217CR0026778","T/S","T/S","FIRST AND UTAH","",""
"10/13/2017","23:30","217CR0026779","AP&P BUSINESS","AP&P BUSINESS","637 S MONTANA APT A","",""
"10/13/2017","23:45","217CR0026780","DISTURBANCE","DISTURBANCE","60 E BROADWAY ACOMA LOUNGE","",""
"10/13/2017","23:49","217CR0026781","ATL","ATL","GEORGE AND HARRISON","",""
"10/14/2017","00:21","217CR0026782","AP&P BUSINESS","POSSESSION OF DANGEROUS DRUGS","531 S MONTANA","ARREST(s) MADE",""
"10/14/2017","00:24","217CR0026783","T/S","T/S @ 3500 BLK WARREN AV","3500 BLK WARREN AV","",""
"10/14/2017","00:30","217CR0026784","WANTED PERSON","PAROLE VIOLATION","COLORADO AND GOLD","ARREST(s) MADE",""
"10/14/2017","00:30","217CR0026785","WANTED PERSON","WANTED PERSON","************","",""
"10/14/2017","00:37","217CR0026786","DISTURBANCE","PFMA - REASONABLE APPREHENSION","2035 CALIFORNIA AVE","",""
"10/14/2017","01:07","217CR0026787","DRUGS","DRUGS","************","",""
"10/14/2017","01:08","217CR0026788","ATL","ATL","12200 BROWNS GULCH","",""
"10/14/2017","04:13","217CR0026789","WELFARE CHECK","WELFARE CHECK","1325 W GRANITE","",""
"10/14/2017","04:27","217CR0026790","T/S","T/S @ GRANITE AND WESTERN","GRANITE AND WESTERN","",""
"10/14/2017","05:46","217CR0026791","T/S","T/S","TRIPPLE S PARKING LOT","",""
"10/14/2017","05:50","217CR0026792","UNWANTED PERSON","UNWANTED PERSON","************","",""
"10/14/2017","06:09","217CR0026793","MEDICAL - EMERGENCY","MEDICAL - EMERGENCY","914 S COLORADO ST","",""
"10/14/2017","06:30","217CR0026794","ALARM - BURGLARY","ALARM - BURGLARY","************","",""
"10/14/2017","08:03","217CR0026795","ABANDONED VEHICLE","ABANDONED VEHICLE","2711 HARRISON AVE","",""
"10/14/2017","08:14","217CR0026796","UNWANTED PERSON","UNWANTED PERSON","************","",""
"10/14/2017","09:15","217CR0026797","DISTURBANCE","DISTURBANCE","901 S WASHINGTON #29","",""
"10/14/2017","09:38","217CR0026798","CIVIL PAPER SERVICE","CIVIL PAPER SERVICE","388 LITTLE BASIN CREEK RD","",""
"10/14/2017","09:40","217CR0026799","WELFARE CHECK","WELFARE CHECK","3041 BAYARD ST","",""
"10/14/2017","10:08","217CR0026800","CIVIL PAPER SERVICE","CIVIL PAPER SERVICE","2601 ST ANNS","",""
"10/14/2017","10:13","217CR0026801","SUSPICIOUS ACTIVITY","SUSPICIOUS ACTIVITY","122005 NISSLER RD","",""
"10/14/2017","10:26","217CR0026802","CIVIL PAPER SERVICE","CIVIL PAPER SERVICE","1809 HOWARD ST","",""
"10/14/2017","10:33","217CR0026803","CIVIL PAPER SERVICE","CIVIL PAPER SERVICE","2035 LAFAYETTE","",""
"10/14/2017","10:57","217CR0026804","INTIMIDATION","INTIMIDATION","1653 HARRISON","",""
"10/14/2017","11:01","217CR0026805","ALARM - FIRE","ALARM - FIRE","2400 CONTINENTAL","",""
"10/14/2017","11:25","217CR0026806","CIVIL PAPER SERVICE","CIVIL PAPER SERVICE","105 RAM","",""
"10/14/2017","11:27","217CR0026807","CIVIL PAPER SERVICE","CIVIL PAPER SERVICE","1475 SAGE","",""
"10/14/2017","11:48","217CR0026808","MEDICAL - EMERGENCY","MEDICAL - EMERGENCY","721 HOBSON #4","",""
"10/14/2017","12:04","217CR0026809","STOLEN VEHICLE","STOLEN VEHICLE","","",""
"10/14/2017","12:05","217CR0026810","STOLEN VEHICLE","CRIMINAL ENDANGERMENT","520 HOLMES","",""
"10/14/2017","12:35","217CR0026811","ALARM - BURGLARY","ALARM - BURGLARY","************","",""
"10/14/2017","12:44","217CR0026812","FIRE - VEHICLE","FIRE - VEHICLE","600 BLK S JACKSON","",""
"10/14/2017","13:01","217CR0026813","LED BUSINESS","LED BUSINESS","155 W QUARTZ","",""
"10/14/2017","13:07","217CR0026814","SUSPICIOUS ACTIVITY","SUSPICIOUS ACTIVITY","OLD ROCKER RD","",""
"10/14/2017","13:23","217CR0026815","CITIZEN AID","CITIZEN AID","2025 GRAND AVE","",""
"10/14/2017","14:37","217CR0026816","DISTURBANCE","DISTURBANCE","1311 FARRELL","",""
"10/14/2017","15:00","217CR0026817","THEFT","THEFT","2920 PHILLIPS ST","",""
"10/14/2017","15:30","217CR0026818","THEFT","MOTOR VEHICLE THEFT","3901 HARRISON AVE","",""
"10/14/2017","15:48","217CR0026819","BURGLARY","BURGLARY","849 W BROADWAY APT C","",""
"10/14/2017","15:52","217CR0026820","WANTED PERSON","WANTED PERSON","************","",""
"10/14/2017","16:10","217CR0026821","ABANDONED VEHICLE","ABANDONED VEHICLE","BLUEBIRD TRAIL","",""
"10/14/2017","16:12","217CR0026822","BURGLARY","BURGLARY","799 HORNET","",""
"10/14/2017","16:27","217CR0026823","MEDICAL - EMERGENCY","MEDICAL - EMERGENCY","155 W QUARTZ","",""
"10/14/2017","17:45","217CR0026824","UNKNOWN PROBLEM","UNKNOWN PROBLEM","714 KENWOOD AVE","",""
"10/14/2017","18:11","217CR0026825","SUSPICIOUS ACTIVITY","SUSPICIOUS ACTIVITY","HORIZON CREDIT UNION","",""
"10/14/2017","18:34","217CR0026826","ATL","ATL","1236 GRIZZLY TRAIL","",""
"10/14/2017","18:37","217CR0026827","DISTURBANCE","CRIMINAL TRESPASS TO PROPERTY","50 W BROADWAY APT 605","ARREST(s) MADE",""
"10/14/2017","18:52","217CR0026828","VANDALISM/CRIMINAL MISCHIEF","CRIMINAL MISCHIEF","BIG M","",""
"10/14/2017","19:01","217CR0026829","MEDICAL - EMERGENCY","MEDICAL - EMERGENCY","1704 LAYFAYETTE","",""
"10/14/2017","19:18","217CR0026831","MEDICAL - EMERGENCY","MEDICAL - EMERGENCY","3701 ELIZABETH WARREN RM 280","",""
"10/14/2017","19:27","217CR0026832","THEFT","MOTOR VEHICLE THEFT","155 W GRANITE ST","",""
"10/14/2017","20:08","217CR0026833","DISTURBANCE","DISTURBANCE","614 W PARK ST","",""
"10/14/2017","20:09","217CR0026834","SUSPICIOUS ACTIVITY","SUSPICIOUS ACTIVITY","711 SILVERBOW HOMES","",""
"10/14/2017","20:16","217CR0026835","SUSPICIOUS ACTIVITY","SUSPICIOUS ACTIVITY","EMMA AND SECOND ST","",""
"10/14/2017","20:43","217CR0026836","FIRE - OTHER","FIRE - OTHER","215 S IDAHO","",""
"10/14/2017","21:38","217CR0026837","DISTURBANCE","DISTURBANCE","FRONT STREET STATION","",""
"10/14/2017","21:57","217CR0026838","THEFT","THEFT, SHOPLIFT","2500 MASSACHUSETTS AVE","",""
"10/14/2017","22:19","217CR0026839","T/S","T/S @ CONTINENTAL AND BURLINGTON","CONTINENTAL AND BURLINGTON","",""
"10/14/2017","22:22","217CR0026840","DISTURBANCE","DISTURBANCE","117 HAMILTON","",""
"10/14/2017","22:38","217CR0026841","ASSIST OTHER AGENCY","ASSIST OTHER AGENCY","1000 BLK S MONTANA","",""
"10/14/2017","22:48","217CR0026842","SUSPICIOUS ACTIVITY","SUSPICIOUS ACTIVITY","WASHINGTON ST AND PLATINUM ST","",""
"10/14/2017","22:52","217CR0026843","T/S","T/S @ FRONT ST AND WYOMING ST","FRONT ST AND WYOMING ST","",""
"10/14/2017","22:56","217CR0026844","BURGLARY","BURGLARY","2225 FAIRWAY","",""
"10/14/2017","23:13","217CR0026845","OPEN BUILDING","OPEN BUILDING","3420 N HILLCREST DR","",""
"10/14/2017","23:13","217CR0026846","DISTURBANCE","DISTURBANCE","1500 FAIRMONT ROAD","",""
"10/14/2017","23:25","217CR0026847","ASSIST OTHER AGENCY","ASSIST OTHER AGENCY","1448 MT HIGHWAY 2 WEST","",""
"10/14/2017","23:34","217CR0026848","ASSIST OTHER AGENCY","ASSIST OTHER AGENCY","655 SADDLEHORN DRIVE","",""
"10/14/2017","23:41","217CR0026849","SUSPICIOUS ACTIVITY","SUSPICIOUS ACTIVITY","1639 A ST","",""
"10/15/2017","00:00","217CR0026850","THEFT","THEFT","2290 EAST DRIVE","",""
"10/15/2017","00:17","217CR0026851","SUSPICIOUS ACTIVITY","SUSPICIOUS ACTIVITY","333 E BROADWAY","",""
"10/15/2017","00:18","217CR0026853","DISTURBANCE","DISTURBANCE","1 W PARK ST","",""
"10/15/2017","00:18","217CR0026852","MEDICAL - EMERGENCY","MEDICAL - EMERGENCY","1011 S UTAH","",""
"10/15/2017","00:23","217CR0026854","SUSPICIOUS ACTIVITY","SUSPICIOUS ACTIVITY","OTTAWA // WEST DRIVE","",""
"10/15/2017","00:27","217CR0026855","BUSINESS CHECK","BUSINESS CHECK","531 S MONTANA","",""
"10/15/2017","00:28","217CR0026856","INTOXICATED PERSON","INTOXICATED PERSON","DEWEY BLVD AND HARRISON AVE","",""
"10/15/2017","00:38","217CR0026857","BUSINESS CHECK","BUSINESS CHECK","1370 HARRISON AVE","",""
"10/15/2017","00:40","217CR0026858","SUSPICIOUS ACTIVITY","SUSPICIOUS ACTIVITY","854 S MAIN ST","",""
"10/15/2017","00:43","217CR0026859","SUSPICIOUS ACTIVITY","SUSPICIOUS ACTIVITY","1700 BLK GRAND AVE","",""
"10/15/2017","00:48","217CR0026860","ATL","ATL","3700 BLK HARRISON AVE","",""
"10/15/2017","00:58","217CR0026861","T/S","T/S","700 BLOCK CENTENNIAL","",""
"10/15/2017","01:02","217CR0026862","T/S","T/S","MAIN ST AND PLATINUM ST","",""
"10/15/2017","01:07","217CR0026863","MEDICAL - EMERGENCY","MEDICAL - EMERGENCY","BROWNS GULCH/FLYING J","",""
"10/15/2017","01:50","217CR0026864","HIT AND RUN","HIT AND RUN, HIGHWAY FIXTURES","FARRAGUT AND GEORGE","",""
"10/15/2017","01:51","217CR0026865","UNWANTED PERSON","UNWANTED PERSON","************","",""
"10/15/2017","01:57","217CR0026866","INTIMIDATION","INTIMIDATION","1411 MOTOR VIEW RD","",""
"10/15/2017","02:04","217CR0026867","T/S","T/S @ GEORGE ST AND MONTANA ST","GEORGE ST AND MONTANA ST","",""
"10/15/2017","02:08","217CR0026868","DISTURBANCE","DISTURBANCE","1 W PARK ST","",""
"10/15/2017","02:10","217CR0026869","DISTURBANCE","PFMA - MINOR INJ/PHYSICAL CONT","709 W GALENA","ARREST(s) MADE",""
"10/15/2017","02:51","217CR0026870","HARASSMENT","HARASSMENT","107 RAM ST","",""
"10/15/2017","02:53","217CR0026871","MISSING PERSON","MISSING PERSON","************","",""
"10/15/2017","03:30","217CR0026872","OPEN BUILDING","OPEN BUILDING","3004 WYNNE AVE","",""
"10/15/2017","04:12","217CR0026873","VANDALISM/CRIMINAL MISCHIEF","VANDALISM/CRIMINAL MISCHIEF","3521 S WARREN","",""
"10/15/2017","05:10","217CR0026874","DISTURBANCE","DISTURBANCE","665 S WASHINGTON ST","",""
"10/15/2017","05:56","217CR0026875","ALARM - BURGLARY","ALARM - BURGLARY","************","",""
"10/15/2017","06:09","217CR0026876","BUSINESS CHECK","BUSINESS CHECK","531 W PLATINUM","",""
"10/15/2017","07:06","217CR0026877","BURGLARY","BURGLARY, RESIDENCE","1311 EAST SECOND","",""
"10/15/2017","07:55","217CR0026878","CITIZEN AID","CITIZEN AID","3017 HARVARD","",""
"10/15/2017","09:16","217CR0026879","TRAFFIC HAZARD","TRAFFIC HAZARD","901 E FRONT","",""
"10/15/2017","09:26","217CR0026880","SUSPICIOUS ACTIVITY","CRIMINAL CONTEMPT","ALABAMA AND PARK","ARREST(s) MADE",""
"10/15/2017","09:30","217CR0026881","STOLEN VEHICLE","MOTOR VEHICLE THEFT","2901 GRAND AVE BUTTE COMMUNITY","",""
"10/15/2017","09:37","217CR0026882","HIT AND RUN","HIT AND RUN","2604 EVANS ST","",""
"10/15/2017","09:54","217CR0026883","THEFT","THEFT","1115 W SILVER","",""
"10/15/2017","09:55","217CR0026884","MEDICAL - EMERGENCY","MEDICAL - EMERGENCY","207 W PARK ST","",""
"10/15/2017","10:25","217CR0026885","CIVIL PAPER SERVICE","CIVIL PAPER SERVICE","650 W GRANITE","",""
"10/15/2017","10:30","217CR0026886","CIVIL PAPER SERVICE","CIVIL PAPER SERVICE","858 W SILVER ST","",""
"10/15/2017","10:40","217CR0026887","CIVIL PAPER SERVICE","CIVIL PAPER SERVICE","1919 S WASHINGTON ST","",""
"10/15/2017","11:37","217CR0026888","T/S","T/S","FRONT AND MISSOURI","",""
"10/15/2017","12:42","217CR0026889","SUSPICIOUS ACTIVITY","SUSPICIOUS ACTIVITY","2305 CONTINENTIAL DR","",""
"10/15/2017","13:12","217CR0026890","FOUND PROPERTY","FOUND PROPERTY","************","",""
"10/15/2017","13:28","217CR0026891","CIVIL PAPER SERVICE","CIVIL PAPER SERVICE","3901 HARRISON AVE","",""
"10/15/2017","13:37","217CR0026892","SUSPICIOUS ACTIVITY","SUSPICIOUS ACTIVITY","62 W BROADWAY","",""
"10/15/2017","13:42","217CR0026893","CIVIL PAPER SERVICE","CIVIL PAPER SERVICE","4800 HARRISON # 16","",""
"10/15/2017","13:52","217CR0026894","LED BUSINESS","LED BUSINESS","BSB GUN RANGE","",""
"10/15/2017","13:55","217CR0026895","T/S","T/S @ CONTINENTAL AND IRENE","CONTINENTAL AND IRENE","",""
"10/15/2017","14:18","217CR0026896","T/S","T/S","HAYES AND FARRELL","",""
"10/15/2017","14:43","217CR0026897","VANDALISM/CRIMINAL MISCHIEF","CRIMINAL MISCHIEF","112 E ALUMINUM","",""
"10/15/2017","14:49","217CR0026898","HARASSMENT","PRIVACY IN COMMUNICATION","1005 COBBAN","",""
"10/15/2017","15:29","217CR0026899","SUSPICIOUS ACTIVITY","SUSPICIOUS ACTIVITY","939 IOWA","",""
"10/15/2017","15:52","217CR0026900","CITIZEN AID","CITIZEN AID","1324 HARRISON","",""
"10/15/2017","15:59","217CR0026901","T/S","DRIVING W/OUT VALID D/L","HOWARD AND GRAND","",""
"10/15/2017","16:13","217CR0026902","T/S","T/S @ LOCUST AND HAYES","LOCUST AND HAYES","",""
"10/15/2017","16:14","217CR0026903","T/S","T/S @ HARRISON AVE AND AIRPORT RD","HARRISON AVE AND AIRPORT RD","",""
"10/15/2017","16:47","217CR0026904","T/S","T/S @ 2611 HARRISON AVE","2611 HARRISON AVE","",""
"10/15/2017","16:53","217CR0026905","MEDICAL - EMERGENCY","MEDICAL - EMERGENCY","DAKOTA ST AND PARK ST","",""
"10/15/2017","16:57","217CR0026906","T/S","NO LIABILITY INSURANCE IN EFF.","300 BLK E ALUMINUM","",""
"10/15/2017","17:08","217CR0026907","HARASSMENT","HARASSMENT","1957 GAYLORD","",""
"10/15/2017","17:35","217CR0026908","DISTURBANCE","DISTURBANCE","1555 BROWNING","",""
"10/15/2017","18:02","217CR0026909","VANDALISM/CRIMINAL MISCHIEF","CRIMINAL MISCHIEF","225 N ALASKA","",""
"10/15/2017","18:15","217CR0026910","HIT AND RUN","HIT AND RUN, UNATTENDED VEHICL","3100 HARRISON AVE","",""
"10/15/2017","18:18","217CR0026911","ASSIST OTHER AGENCY","ASSIST OTHER AGENCY","I15 MM 109 NBND","",""
"10/15/2017","18:37","217CR0026912","SUSPICIOUS ACTIVITY","SUSPICIOUS ACTIVITY","3300 HARRISON AVE","",""
"10/15/2017","19:27","217CR0026913","WELFARE CHECK","WELFARE CHECK","1827 OREGON AVE","",""
"10/15/2017","19:58","217CR0026914","ABANDONED VEHICLE","ABANDONED VEHICLE","1328 KAW","",""
"10/15/2017","19:59","217CR0026915","ANIMAL COMPLAINT-BITE","ANIMAL COMPLAINT-BITE","19 W LAPLATTE","",""
"10/15/2017","20:08","217CR0026916","MEDICAL - EMERGENCY","MEDICAL - EMERGENCY","155 W QUARTZ","",""
"10/15/2017","20:38","217CR0026917","UNWANTED PERSON","FAILURE TO DISPERSE","60 E BROADWAY","ARREST(s) MADE",""
"10/15/2017","21:10","217CR0026918","ACCIDENT - INJURY","ACCIDENT - INJURY","ATLANTIC AND FRONT","",""
"10/15/2017","21:33","217CR0026919","ALARM - BURGLARY","ALARM - BURGLARY","************","",""
"10/15/2017","22:06","217CR0026920","SUSPICIOUS ACTIVITY","SUSPICIOUS ACTIVITY","1600 BLK GRAND AV","",""
"10/15/2017","22:16","217CR0026921","ALARM - BURGLARY","ALARM - BURGLARY","************","",""
"10/15/2017","22:18","217CR0026922","THEFT","THEFT, ALL OTHERS","3320 KEOKUK","",""
"10/15/2017","22:20","217CR0026923","SUSPICIOUS ACTIVITY","SUSPICIOUS ACTIVITY","OROFINO GULCH RD AT THE BIG M","",""
"10/15/2017","23:08","217CR0026924","VANDALISM/CRIMINAL MISCHIEF","VANDALISM/CRIMINAL MISCHIEF","1000 IOWA","",""
"10/15/2017","23:14","217CR0026925","DISTURBANCE","DISTURBANCE","1117 W PARK","",""
"10/15/2017","23:49","217CR0026926","T/S","T/S","901 E FRONT/THIFTWAY","",""
"10/16/2017","00:05","217CR0026927","T/S","T/S @ FARRELL AND HOWARD","FARRELL AND HOWARD","",""
"10/16/2017","00:14","217CR0026928","MEDICAL - EMERGENCY","MEDICAL - EMERGENCY","2813 SILVERBOW BLVD","",""
"10/16/2017","01:02","217CR0026929","DISTURBANCE","PFMA - REASONABLE APPREHENSION","521 1/2 W SILVER","ARREST(s) MADE",""
"10/16/2017","01:38","217CR0026930","ALARM - BURGLARY","ALARM - BURGLARY","************","",""
"10/16/2017","02:01","217CR0026931","SUSPICIOUS ACTIVITY","SUSPICIOUS ACTIVITY","WATERLINE RD AND HOPE RD","",""
"10/16/2017","02:16","217CR0026932","BUSINESS CHECK","BUSINESS CHECK","531 S MONTANA/TOWN PUMP","",""
"10/16/2017","02:44","217CR0026933","DISTURBANCE","ASSAULT, SIMPLE","507 S MAIN","ARREST(s) MADE",""
"10/16/2017","02:45","217CR0026934","DISTURBANCE","CRIMINAL CONTEMPT","2114 WALNUT","ARREST(s) MADE",""
"10/16/2017","05:00","217CR0026935","SUSPICIOUS ACTIVITY","SUSPICIOUS ACTIVITY","2825 ELM","",""
"10/16/2017","05:47","217CR0026936","OPEN BUILDING","OPEN BUILDING","333 E BROADWAY BROADWAY STORAG","",""
"10/16/2017","05:54","217CR0026937","UNKNOWN PROBLEM","UNKNOWN PROBLEM","211 SILVERBOW HOMES","",""
"10/16/2017","06:13","217CR0026938","UNKNOWN PROBLEM","UNKNOWN PROBLEM","211 SILVER BOW HOMES","",""
 

BSB police report ending October 13, 2017

"10/12/2017","00:17","217CR0026609","BUSINESS CHECK","BUSINESS CHECK","1370 HARRISON TOWN PUMP","",""
"10/12/2017","00:24","217CR0026610","BUSINESS CHECK","BUSINESS CHECK","1915 DEWEY LUCKY LILS CASINO","",""
"10/12/2017","00:36","217CR0026611","OPEN BUILDING","OPEN BUILDING","726 S ARIZONA NORTHWEST FUEL","",""
"10/12/2017","00:58","217CR0026612","SUSPICIOUS ACTIVITY","SUSPICIOUS ACTIVITY","WYOMING // AGATE","",""
"10/12/2017","01:25","217CR0026613","DISTURBANCE","DISTURBANCE","1915 DEWEY LUCKY LILS CASINO","",""
"10/12/2017","02:13","217CR0026614","INTOXICATED PERSON","INTOXICATED PERSON","2401 CONTINENTAL DR THRIFTWAY","",""
"10/12/2017","02:46","217CR0026615","SUSPICIOUS ACTIVITY","SUSPICIOUS ACTIVITY","3260 SAINT ANN ST","",""
"10/12/2017","03:58","217CR0026616","DISTURBANCE","DISTURBANCE","531 S MONTANA/TOWN PUMP","",""
"10/12/2017","04:13","217CR0026617","ALARM - BURGLARY","ALARM - BURGLARY","************","",""
"10/12/2017","05:02","217CR0026618","ACCIDENT","ACCIDENT","BEEF TRAIL AND LITTLE BASIN CR","",""
"10/12/2017","05:04","217CR0026619","T/S","T/S","MONTANA AND MERCURY","",""
"10/12/2017","05:08","217CR0026620","T/S","STOP SIGN VIOLATION","ROWE RD AND CHULA","",""
"10/12/2017","06:17","217CR0026621","DISTURBANCE","DISTURBANCE","405 SILVER BOW HOMES","",""
"10/12/2017","06:35","217CR0026622","ALARM - BURGLARY","ALARM - BURGLARY","************","",""
"10/12/2017","07:39","217CR0026623","T/S","T/S","COBBAN AND PORTER","",""
"10/12/2017","07:44","217CR0026624","ASSIST OTHER AGENCY","ASSIST OTHER AGENCY","2106 JOHNS AVE","",""
"10/12/2017","07:49","217CR0026625","T/S","T/S","300 BLK ARIZONA ST","",""
"10/12/2017","07:51","217CR0026626","CIVIL PAPER SERVICE","CIVIL PAPER SERVICE","4500 SADDLE ROCK RD","",""
"10/12/2017","07:57","217CR0026627","MEDICAL - EMERGENCY","MEDICAL - EMERGENCY","3100 SANDERS ST","",""
"10/12/2017","08:03","217CR0026628","CIVIL PAPER SERVICE","CIVIL PAPER SERVICE","2230 CROSS DRIVE","",""
"10/12/2017","08:06","217CR0026629","TRAFFIC HAZARD","CRIMINAL CONTEMPT","1000 S ARIZONA","ARREST(s) MADE",""
"10/12/2017","08:24","217CR0026630","ACCIDENT","NO LIABILITY INSURANCE IN EFF.","1600 BLOCK THORNTON","",""
"10/12/2017","08:25","217CR0026631","THEFT","THEFT","155 W QUARTZ","",""
"10/12/2017","08:47","217CR0026632","CIVIL PAPER SERVICE","CIVIL PAPER SERVICE","62 W BROADWAY","",""
"10/12/2017","08:48","217CR0026633","ASSIST OTHER AGENCY","ASSIST OTHER AGENCY","508 W GALENA","",""
"10/12/2017","08:55","217CR0026634","CIVIL PAPER SERVICE","CIVIL PAPER SERVICE","111 W BROADWAY","",""
"10/12/2017","09:10","217CR0026635","CIVIL PAPER SERVICE","CIVIL PAPER SERVICE","60 E BROADWAY","",""
"10/12/2017","09:27","217CR0026636","THEFT","THEFT, SHOPLIFT","1301 HARRISON AVE","",""
"10/12/2017","09:58","217CR0026637","T/S","POSSESS DRUG PARAPHERNALIA","1301 HARRISON","ARREST(s) MADE",""
"10/12/2017","10:27","217CR0026638","ABANDONED VEHICLE- PRIVATE PRO","ABANDONED VEHICLE- PRIVATE PRO","631 S UTAH/R&R ELECTRIC","",""
"10/12/2017","10:36","217CR0026639","ASSAULT","ASSAULT,  W/CUTS/BROKEN BONES","55 BASIN CREEK RD ACADIA","ARREST(s) MADE",""
"10/12/2017","10:54","217CR0026640","FRAUD","FRAUD","2401 CONTINENTAL DR","",""
"10/12/2017","11:06","217CR0026641","TRAFFIC HAZARD","TRAFFIC HAZARD","1732 LOWELL","",""
"10/12/2017","11:21","217CR0026642","RESTRAINING ORDER VIOLATION","STALKING","2520 WASHOE","",""
"10/12/2017","11:30","217CR0026643","SUSPICIOUS ACTIVITY","SUSPICIOUS ACTIVITY","DEWEY AND HARRISON","",""
"10/12/2017","12:14","217CR0026644","STOLEN VEHICLE","STOLEN VEHICLE","5041 HARRISON AVE","",""
"10/12/2017","12:28","217CR0026645","ASSIST OTHER AGENCY","ASSIST OTHER AGENCY","1408 SILVER BOW HOMES","",""
"10/12/2017","12:37","217CR0026646","LED BUSINESS","LED BUSINESS","225 N ALASKA","",""
"10/12/2017","13:41","217CR0026647","WELFARE CHECK","WELFARE CHECK","714 W PARK","",""
"10/12/2017","13:43","217CR0026648","SUSPICIOUS ACTIVITY","SUSPICIOUS ACTIVITY","402 W DALY","",""
"10/12/2017","13:46","217CR0026649","LOST OR STOLEN PROPERTY","LOST OR STOLEN PROPERTY","225 N ALASKA","",""
"10/12/2017","14:33","217CR0026650","MEDICAL - EMERGENCY","MEDICAL - EMERGENCY","DAKOTA ST AND PARK ST","",""
"10/12/2017","14:36","217CR0026651","THEFT","THEFT, SHOPLIFT","3901 HARRISON AVE","",""
"10/12/2017","14:48","217CR0026652","THEFT","THEFT, SHOPLIFT","3901 HARRISON AVE","",""
"10/12/2017","15:20","217CR0026653","THEFT","THEFT FROM MOTOR VEHICLE","2900 HARRISON AVE","",""
"10/12/2017","15:25","217CR0026654","CIVIL STANDBY","CIVIL STANDBY","715 ZARELDA","",""
"10/12/2017","15:40","217CR0026655","UNKNOWN PROBLEM","UNKNOWN PROBLEM","2215 NORTH DRIVE","",""
"10/12/2017","16:29","217CR0026656","INTOXICATED PERSON","INTOXICATED PERSON","BSB ANIMAL SHELTER","",""
"10/12/2017","16:35","217CR0026657","SUSPICIOUS ACTIVITY","SUSPICIOUS ACTIVITY","600 BLK OF W IRON ST","",""
"10/12/2017","16:35","217CR0026658","SUSPICIOUS ACTIVITY","SUSPICIOUS ACTIVITY","1800 BLK C ST","",""
"10/12/2017","16:41","217CR0026659","MEDICAL - EMERGENCY","MEDICAL - EMERGENCY","1931 LOCUST","",""
"10/12/2017","16:52","217CR0026660","ANIMAL COMPLAINT-BITE","ANIMAL COMPLAINT-BITE","1729 LOWELL","",""
"10/12/2017","17:11","217CR0026661","ALARM - BURGLARY","ALARM - BURGLARY","************","",""
"10/12/2017","17:18","217CR0026662","CIVIL PAPER SERVICE","CIVIL PAPER SERVICE","BUTTE PRE RELEASE","",""
"10/12/2017","17:39","217CR0026663","JUVENILE MISC","JUVENILE MISC","************","",""
"10/12/2017","17:42","217CR0026664","DETENTION BUSINESS","DETENTION BUSINESS","************","",""
"10/12/2017","17:44","217CR0026665","CITIZEN AID","CITIZEN AID","225 N ALASKA","",""
"10/12/2017","17:51","217CR0026666","ACCIDENT","ACCIDENT","1301 HARRISON AVE","",""
"10/12/2017","18:10","217CR0026667","THEFT","THEFT, ALL OTHERS","6100 HWY 10","",""
"10/12/2017","18:13","217CR0026668","THEFT","THEFT FROM MOTOR VEHICLE","2527 LOCUST ST","",""
"10/12/2017","18:16","217CR0026669","ALARM - BURGLARY","ALARM - BURGLARY","************","",""
"10/12/2017","18:34","217CR0026670","DISTURBANCE","DISTURBANCE","714 KENWOOD AVE","",""
"10/12/2017","18:48","217CR0026671","MEDICAL - EMERGENCY","MEDICAL - EMERGENCY","226 W BROADWAY","",""
"10/12/2017","19:30","217CR0026673","T/S","T/S","TEXAS AND CIVIC CENTER RD N","",""
"10/12/2017","19:30","217CR0026672","UNWANTED PERSON","UNWANTED PERSON","************","",""
"10/12/2017","19:40","217CR0026674","ALL OTHER","ALL OTHER","10  N IDAHO","",""
"10/12/2017","19:48","217CR0026675","SUSPICIOUS ACTIVITY","SUSPICIOUS ACTIVITY","MERCURY ST AND MONTANA ST","",""
"10/12/2017","19:57","217CR0026676","HIT AND RUN","HIT AND RUN","1330 JOY LANE","",""
"10/12/2017","20:19","217CR0026677","SUSPICIOUS ACTIVITY","SUSPICIOUS ACTIVITY","200 SHIELDS AVE","",""
"10/12/2017","20:22","217CR0026678","TRAFFIC","TRAFFIC","1615 N MAIN ST","",""
"10/12/2017","20:32","217CR0026679","DISTURBANCE","DISTURBANCE","2051 HARRISON AVE","",""
"10/12/2017","20:49","217CR0026680","MEDICAL - EMERGENCY","MEDICAL - EMERGENCY","3033 BUSCH #10","",""
"10/12/2017","20:55","217CR0026681","ATL","ATL","I15 MM 127 NB","",""
"10/12/2017","21:30","217CR0026682","ASSIST OTHER AGENCY","ASSIST OTHER AGENCY","CENTENNIAL AND SANTA CLAUS LN","",""
"10/12/2017","21:48","217CR0026683","MC COMPLAINT","MC COMPLAINT","CENTENNIAL AND SANTA CLAUS RD","",""
"10/12/2017","22:26","217CR0026684","T/S","T/S","TEXAS AND GRAND","",""
"10/12/2017","22:42","217CR0026685","ASSAULT","ASSAULT","************","",""
"10/12/2017","23:52","217CR0026686","BUSINESS CHECK","BUSINESS CHECK","12200 N BROWNS GULCH/FLYING J","",""
"10/13/2017","00:06","217CR0026687","BUSINESS CHECK","BUSINESS CHECK","3700 HARRISON AVE","",""
"10/13/2017","00:38","217CR0026688","T/S","STOP SIGN VIOLATION","TEXAS AND LOCUST","",""
"10/13/2017","00:42","217CR0026689","ALL OTHER","ALL OTHER","","",""
"10/13/2017","00:45","217CR0026690","DISTURBANCE","DISTURBANCE","817 S DAKOTA","",""
"10/13/2017","01:08","217CR0026691","MEDICAL - EMERGENCY","MEDICAL - EMERGENCY","207 W PARK LINCOLN MOTEL","",""
"10/13/2017","02:30","217CR0026692","ASSIST OTHER AGENCY","ASSIST OTHER AGENCY","155 W QUARTZ","",""
"10/13/2017","02:31","217CR0026693","DISTURBANCE","DISTURBANCE","60 E BROADWAY ACOMA LOUNGE","",""
"10/13/2017","02:57","217CR0026694","DISTURBANCE-NOISE","DISTURBANCE-NOISE","60 E BROADWAY ACOMA LOUNGE","",""
"10/13/2017","03:01","217CR0026695","T/S","T/S @ 45 THREE BEARS WAY 3 BEARS ALA","45 THREE BEARS WAY 3 BEARS ALA","",""
"10/13/2017","03:52","217CR0026696","LOST OR STOLEN PROPERTY","LOST OR STOLEN PROPERTY","1831 FARRAGUT","",""
"10/13/2017","06:28","217CR0026697","MEDICAL - EMERGENCY","MEDICAL - EMERGENCY","721 HOBSON #4","",""
"10/13/2017","07:18","217CR0026699","ALARM - MEDICAL","ALARM - MEDICAL","************","",""
"10/13/2017","07:21","217CR0026701","THEFT","THEFT","520 W PARK","",""
"10/13/2017","07:56","217CR0026702","CIVIL PAPER SERVICE","CIVIL PAPER SERVICE","2030 LOCUST","",""
"10/13/2017","07:57","217CR0026703","CIVIL PAPER SERVICE","CIVIL PAPER SERVICE","2815 LOCUST","",""
"10/13/2017","08:03","217CR0026704","CIVIL PAPER SERVICE","CIVIL PAPER SERVICE","715 ZARELDA","",""
"10/13/2017","08:09","217CR0026705","CIVIL PAPER SERVICE","CIVIL PAPER SERVICE","79 MISSOULA","",""
"10/13/2017","08:12","217CR0026708","CIVIL PAPER SERVICE","CIVIL PAPER SERVICE","105 RAM","",""
 

BSB police report ending October 12, 2017

"10/11/2017","00:20","217CR0026537","JUVENILE MISC","JUVENILE MISC","************","",""
"10/11/2017","00:22","217CR0026538","ATL","ATL","BUTTE AREA","",""
"10/11/2017","00:31","217CR0026539","UNWANTED PERSON","UNWANTED PERSON","************","",""
"10/11/2017","01:43","217CR0026540","CITIZEN AID","CITIZEN AID","1370 HARRISON/TOWN PUMP","",""
"10/11/2017","02:08","217CR0026541","WANTED PERSON","POSSESS DRUG PARAPHERNALIA","700 ROW SILVERBOW HOMES","ARREST(s) MADE",""
"10/11/2017","02:34","217CR0026542","ALL OTHER","ALL OTHER","910 EVANS #D9","",""
"10/11/2017","02:52","217CR0026543","THEFT","THEFT","3499 HARRISON AVE/HAMPTON INN","",""
"10/11/2017","03:08","217CR0026544","T/S","DRIVE WHILE SUSP. OR REVOKED","531 S MONTANA TOWN PUMP","",""
"10/11/2017","04:18","217CR0026545","DRUGS","DRUGS","************","",""
"10/11/2017","04:37","217CR0026546","SUSPICIOUS ACTIVITY","SUSPICIOUS ACTIVITY","2100 FARRAGUT ST ANN CHURCH","",""
"10/11/2017","05:49","217CR0026547","MEDICAL - EMERGENCY","MEDICAL - EMERGENCY","617 W IRON","",""
"10/11/2017","06:50","217CR0026548","DISTURBANCE","DISTURBANCE","1922 TEXAS","",""
"10/11/2017","08:05","217CR0026549","ACCIDENT","ACCIDENT","624 S WYOMING","",""
"10/11/2017","08:14","217CR0026550","ALARM-DURESS","ALARM-DURESS","************","",""
"10/11/2017","08:24","217CR0026551","SUSPICIOUS ACTIVITY","SUSPICIOUS ACTIVITY","MAIN AND SILVER STS","",""
"10/11/2017","08:38","217CR0026552","CIVIL PAPER SERVICE","CIVIL PAPER SERVICE","901 N EXCELSIOR","",""
"10/11/2017","08:42","217CR0026553","CIVIL PAPER SERVICE","CIVIL PAPER SERVICE","937 W COPPER","",""
"10/11/2017","08:46","217CR0026554","DETENTION BUSINESS","DETENTION BUSINESS","************","",""
"10/11/2017","08:52","217CR0026555","T/S","T/S","ARIZONA ST AND CURTIS ST","",""
"10/11/2017","09:06","217CR0026556","ASSIST OTHER AGENCY","ASSIST OTHER AGENCY","177 TRINITY LOOP","",""
"10/11/2017","09:39","217CR0026557","T/S","T/S","COBBAN AND LOWELL","",""
"10/11/2017","10:14","217CR0026558","CIVIL PAPER SERVICE","CIVIL PAPER SERVICE","910 EVANS APT H4","",""
"10/11/2017","10:21","217CR0026559","INFORMATION ONLY","INFORMATION ONLY","1610 ELM","",""
"10/11/2017","10:45","217CR0026561","T/S","T/S @ 823 S MONTANA ST","823 S MONTANA ST","",""
"10/11/2017","10:49","217CR0026562","ANIMAL COMPLAINT","ANIMAL COMPLAINT","651 W GRANITE","",""
"10/11/2017","11:03","217CR0026563","T/S","T/S @ STUART AND FARRELL","STUART AND FARRELL","",""
"10/11/2017","11:26","217CR0026564","T/S","DRIVE WHILE SUSP. OR REVOKED","KAW AVE AND GEORGE ST","ARREST(s) MADE",""
"10/11/2017","11:35","217CR0026566","ACCIDENT","ACCIDENT","2950 BUSCH AVE","",""
"10/11/2017","11:37","217CR0026565","THEFT","THEFT","","",""
"10/11/2017","11:58","217CR0026567","HIT AND RUN","HIT AND RUN","1019 E SECOND","",""
"10/11/2017","12:11","217CR0026568","DETENTION BUSINESS","DETENTION BUSINESS","************","",""
"10/11/2017","12:33","217CR0026569","DRUGS","DRUGS","************","",""
"10/11/2017","12:52","217CR0026570","LED BUSINESS","LED BUSINESS","UPTOWN FOOT PATROL","",""
"10/11/2017","13:01","217CR0026571","THEFT","THEFT, SHOPLIFT","1000 GRIZZLEY TRAIL","",""
"10/11/2017","13:06","217CR0026572","FIRE- GAS ODOR","FIRE- GAS ODOR","3040 CONTINENTAL DR","",""
"10/11/2017","13:39","217CR0026573","THEFT","THEFT, ALL OTHERS","1822 HARRISON AVE","",""
"10/11/2017","13:59","217CR0026574","THEFT","THEFT","4034 ELIZABETH WARREN APT 106","",""
"10/11/2017","14:47","217CR0026575","BURGLARY","THEFT FROM BUILDINGS","35 BURNING TREE LANE","",""
"10/11/2017","14:52","217CR0026576","WELFARE CHECK","WELFARE CHECK","727 1/2 S WYOMING ST","",""
"10/11/2017","14:55","217CR0026577","WELFARE CHECK","WELFARE CHECK","2936 TEAL ST UNT 13","",""
"10/11/2017","14:59","217CR0026578","WELFARE CHECK","WELFARE CHECK","177 TRINITY LOOP","",""
"10/11/2017","15:10","217CR0026579","ALARM - BURGLARY","ALARM - BURGLARY","************","",""
"10/11/2017","15:14","217CR0026580","T/S","OPERATING WITHOUT CURRENT REGI","PORPHYRY ST AND MONTANA ST","",""
"10/11/2017","15:21","217CR0026581","DISTURBANCE","DISTURBANCE","SECOND ST AND MARYLAND ST","",""
"10/11/2017","15:37","217CR0026582","HARASSMENT","HARASSMENT","225 N ALASKA","",""
"10/11/2017","15:44","217CR0026583","CIVIL PAPER SERVICE","CIVIL PAPER SERVICE","715 ZARELDA","",""
"10/11/2017","15:53","217CR0026584","CITIZEN AID","CITIZEN AID","225 N ALASKA","",""
"10/11/2017","15:58","217CR0026585","T/S","T/S @ ZARELDA ST AND EXCELSIOR AVE","ZARELDA ST AND EXCELSIOR AVE","",""
"10/11/2017","16:09","217CR0026586","SUSPICIOUS ACTIVITY","SUSPICIOUS ACTIVITY","CLARK AND GOLD","",""
"10/11/2017","16:17","217CR0026587","T/S","DRIVE WHILE SUSP. OR REVOKED","GALENA ST AND COLORADO ST","",""
"10/11/2017","18:18","217CR0026588","CITIZEN AID","CITIZEN AID","225 N ALASKA","",""
"10/11/2017","18:30","217CR0026589","ATL","ATL","3901 HARRISON AVE","",""
"10/11/2017","18:33","217CR0026590","DISTURBANCE","DISTURBANCE","1300 BLK E PARK PLACE","",""
"10/11/2017","18:37","217CR0026591","CIVIL STANDBY","CIVIL STANDBY","354 E GALENA","",""
"10/11/2017","18:54","217CR0026592","DISTURBANCE","DISTURBANCE","1919 S ARIZONA","",""
"10/11/2017","18:56","217CR0026593","ASSAULT","ASSAULT","************","",""
"10/11/2017","19:19","217CR0026594","CIVIL PAPER SERVICE","CIVIL PAPER SERVICE","1701 1/2 S WARREN","",""
"10/11/2017","19:20","217CR0026595","T/S","T/S","CONTINENTAL AND GREGSON","",""
"10/11/2017","19:35","217CR0026596","T/S","T/S @ DEWEY AND HILL ST","DEWEY AND HILL ST","",""
"10/11/2017","19:58","217CR0026597","FIRE - OTHER","FIRE - OTHER","1128 W PARK","",""
"10/11/2017","20:03","217CR0026598","ALL OTHER","ALL OTHER","DAKOTA ST AND PARK ST","",""
"10/11/2017","20:32","217CR0026599","CIVIL STANDBY","CIVIL STANDBY","225 N ALASKA ST","",""
"10/11/2017","20:39","217CR0026600","MEDICAL - EMERGENCY","MEDICAL - EMERGENCY","207 BAVARIA","",""
"10/11/2017","21:15","217CR0026601","ANIMAL COMPLAINT","ANIMAL COMPLAINT","I90 WBND MM 230","",""
"10/11/2017","21:16","217CR0026602","T/S","T/S","MONTANA ST AND GEORGE ST","",""
"10/11/2017","22:02","217CR0026603","BUSINESS CHECK","BUSINESS CHECK","3878 PAXSON AVE HAPPY ENDINGS","",""
"10/11/2017","22:39","217CR0026604","CIVIL PAPER SERVICE","CIVIL PAPER SERVICE","1386 SUNSET","",""
"10/11/2017","23:09","217CR0026605","SUSPICIOUS ACTIVITY","SUSPICIOUS ACTIVITY","HAMBLIN HEIGHTS","",""
"10/11/2017","23:10","217CR0026606","MEDICAL - EMERGENCY","MEDICAL - EMERGENCY","744 EMPIRE","",""
"10/11/2017","23:24","217CR0026607","UNWANTED PERSON","UNWANTED PERSON","************","",""
"10/11/2017","23:33","217CR0026608","SUSPICIOUS ACTIVITY","SUSPICIOUS ACTIVITY","1370 HARRISON/TOWN PUMP","",""
"10/12/2017","00:17","217CR0026609","BUSINESS CHECK","BUSINESS CHECK","1370 HARRISON TOWN PUMP","",""
"10/12/2017","00:24","217CR0026610","BUSINESS CHECK","BUSINESS CHECK","1915 DEWEY LUCKY LILS CASINO","",""
"10/12/2017","00:36","217CR0026611","OPEN BUILDING","OPEN BUILDING","726 S ARIZONA NORTHWEST FUEL","",""
"10/12/2017","00:58","217CR0026612","SUSPICIOUS ACTIVITY","SUSPICIOUS ACTIVITY","WYOMING // AGATE","",""
"10/12/2017","01:25","217CR0026613","DISTURBANCE","DISTURBANCE","1915 DEWEY LUCKY LILS CASINO","",""
"10/12/2017","02:13","217CR0026614","INTOXICATED PERSON","INTOXICATED PERSON","2401 CONTINENTAL DR THRIFTWAY","",""
"10/12/2017","02:46","217CR0026615","SUSPICIOUS ACTIVITY","SUSPICIOUS ACTIVITY","3260 SAINT ANN ST","",""
"10/12/2017","03:58","217CR0026616","DISTURBANCE","DISTURBANCE","531 S MONTANA/TOWN PUMP","",""
"10/12/2017","04:13","217CR0026617","ALARM - BURGLARY","ALARM - BURGLARY","************","",""
"10/12/2017","05:02","217CR0026618","ACCIDENT","ACCIDENT","BEEF TRAIL AND LITTLE BASIN CR","",""
"10/12/2017","05:04","217CR0026619","T/S","T/S @ MONTANA AND MERCURY","MONTANA AND MERCURY","",""
"10/12/2017","05:08","217CR0026620","T/S","STOP SIGN VIOLATION","ROWE RD AND CHULA","",""
"10/12/2017","06:17","217CR0026621","DISTURBANCE","DISTURBANCE","405 SILVER BOW HOMES","",""
"10/12/2017","06:35","217CR0026622","ALARM - BURGLARY","ALARM - BURGLARY","************","",""
"10/12/2017","07:39","217CR0026623","T/S","T/S","COBBAN AND PORTER","",""
"10/12/2017","07:44","217CR0026624","ASSIST OTHER AGENCY","ASSIST OTHER AGENCY","2106 JOHNS AVE","",""
"10/12/2017","07:49","217CR0026625","T/S","T/S @ 300 BLK ARIZONA ST","300 BLK ARIZONA ST","",""
"10/12/2017","07:51","217CR0026626","CIVIL PAPER SERVICE","CIVIL PAPER SERVICE","4500 SADDLE ROCK RD","",""
 

BSB police report ending October 11, 2017

"10/10/2017","00:02","217CR0026454","T/S","POSSESS DRUG PARAPHERNALIA","HARVARD AND HARRISON","",""
"10/10/2017","00:31","217CR0026455","T/S","NO LIABILITY INSURANCE IN EFF.","GEORGE AND FARRAGUT","",""
"10/10/2017","00:32","217CR0026456","SUSPICIOUS ACTIVITY","CRIMINAL CONTEMPT","900 BLK S UTAH","ARREST(s) MADE",""
"10/10/2017","01:03","217CR0026457","T/S","T/S","MARCIA ST AND GARRISON AVE","",""
"10/10/2017","01:50","217CR0026458","DISTURBANCE","DISTURBANCE","2909 CARTER","",""
"10/10/2017","02:26","217CR0026459","BUSINESS CHECK","BUSINESS CHECK","1370 HARRISON/TOWN PUMP","",""
"10/10/2017","03:58","217CR0026460","MEDICAL - EMERGENCY","MEDICAL - EMERGENCY","1828 ADAMS","",""
"10/10/2017","04:32","217CR0026461","T/S","T/S","MONTANA ST AND BEEF TRAIL RD","",""
"10/10/2017","08:04","217CR0026462","T/S","T/S","2900 BLK FLORAL","",""
"10/10/2017","08:06","217CR0026463","ALARM - MEDICAL","ALARM - MEDICAL","************","",""
"10/10/2017","08:09","217CR0026464","DRUGS","DRUGS","************","",""
"10/10/2017","08:14","217CR0026465","T/S","T/S","GRAND AND MONROE","",""
"10/10/2017","08:19","217CR0026466","SUSPICIOUS ACTIVITY","SUSPICIOUS ACTIVITY","CLARKS PARK","",""
"10/10/2017","08:33","217CR0026467","CIVIL PAPER SERVICE","CIVIL PAPER SERVICE","2230 CROSS DR","",""
"10/10/2017","08:37","217CR0026468","SUSPICIOUS ACTIVITY","SUSPICIOUS ACTIVITY","1369 HARRISON","",""
"10/10/2017","08:39","217CR0026469","SUSPICIOUS ACTIVITY","SUSPICIOUS ACTIVITY","2330 S DRIVE","",""
"10/10/2017","08:39","217CR0026470","CIVIL PAPER SERVICE","CIVIL PAPER SERVICE","3523 S WARREN","",""
"10/10/2017","08:44","217CR0026471","DISTURBANCE","DISTURBANCE","24 E COPPER","",""
"10/10/2017","08:45","217CR0026472","VANDALISM/CRIMINAL MISCHIEF","VANDALISM/CRIMINAL MISCHIEF","3345 HARRISON","",""
"10/10/2017","08:49","217CR0026473","DETENTION BUSINESS","DETENTION BUSINESS","************","",""
"10/10/2017","08:59","217CR0026474","CIVIL PAPER SERVICE","CIVIL PAPER SERVICE","155 W QUARTZ","",""
"10/10/2017","09:01","217CR0026475","CIVIL PAPER SERVICE","CIVIL PAPER SERVICE","BUTTE PRE RELEASE","",""
"10/10/2017","09:04","217CR0026476","CIVIL PAPER SERVICE","CIVIL PAPER SERVICE","2225 ARGYLE","",""
"10/10/2017","09:12","217CR0026477","CIVIL PAPER SERVICE","CIVIL PAPER SERVICE","1717 LOWELL","",""
"10/10/2017","09:23","217CR0026478","T/S","T/S @ 1900 BLK HARRISON AVE","1900 BLK HARRISON AVE","",""
"10/10/2017","09:27","217CR0026479","MEDICAL - EMERGENCY","MEDICAL - EMERGENCY","2901 BARTLETT D","",""
"10/10/2017","09:29","217CR0026480","ALARM - FIRE","ALARM - FIRE","3033 BUSCH BUILDING 3","",""
"10/10/2017","09:30","217CR0026481","MEDICAL - EMERGENCY","MEDICAL - EMERGENCY","207 W PARK ST","",""
"10/10/2017","09:41","217CR0026482","CITIZEN AID","CITIZEN AID","225 N ALASKA","",""
"10/10/2017","09:45","217CR0026483","LED BUSINESS","LED BUSINESS","24 E COPPER","",""
"10/10/2017","09:48","217CR0026484","DETENTION BUSINESS","DETENTION BUSINESS","************","",""
"10/10/2017","09:48","217CR0026485","INFORMATION ONLY","INFORMATION ONLY","699 CENTENIAL","",""
"10/10/2017","10:04","217CR0026486","HIT AND RUN","HIT AND RUN","55 BASIN CREEK","",""
"10/10/2017","10:19","217CR0026487","SUSPICIOUS ACTIVITY","SUSPICIOUS ACTIVITY","901 S WASHINGTON","",""
"10/10/2017","10:22","217CR0026488","BURGLARY","THEFT FROM BUILDINGS","3516 S WARREN #48","",""
"10/10/2017","10:38","217CR0026489","ANIMAL COMPLAINT","ANIMAL COMPLAINT","I15 MM 130","",""
"10/10/2017","10:52","217CR0026490","CIVIL PAPER SERVICE","CIVIL PAPER SERVICE","2507 PINE ST","",""
"10/10/2017","10:54","217CR0026491","MEDICAL - EMERGENCY","MEDICAL - EMERGENCY","2123 LOWELL","",""
"10/10/2017","11:19","217CR0026492","RESTRAINING ORDER VIOLATION","VIOLATION OF PROTECTION ORDER","2520 WASHOE ST","",""
"10/10/2017","11:30","217CR0026493","HARASSMENT","HARASSMENT","209 W PARK","",""
"10/10/2017","11:42","217CR0026494","MEDICAL - EMERGENCY","MEDICAL - EMERGENCY","14 S JACKSON","",""
"10/10/2017","11:48","217CR0026495","CITIZEN AID","CITIZEN AID","1314 ADAMS","",""
"10/10/2017","11:50","217CR0026496","FIRE - OTHER","FIRE - OTHER","GILMAN AND HILL AVE","",""
"10/10/2017","11:53","217CR0026497","VEHICLE INSPECTION","VEHICLE INSPECTION","1442 EASY ST","",""
"10/10/2017","12:14","217CR0026499","ATL","ATL","","",""
"10/10/2017","12:17","217CR0026498","T/S","T/S","AMHERST ST AND HANCOCK ST","",""
"10/10/2017","12:27","217CR0026500","THEFT","THEFT FROM MOTOR VEHICLE","BUTTE PLAZA MALL","",""
"10/10/2017","13:09","217CR0026501","DETENTION BUSINESS","DETENTION BUSINESS","************","",""
"10/10/2017","13:13","217CR0026502","ANIMAL COMPLAINT-BITE","ANIMAL COMPLAINT-BITE","823 S MAIN","",""
"10/10/2017","13:17","217CR0026503","ASSIST OTHER AGENCY","ASSIST OTHER AGENCY","MINAH ST AND MAIN ST","",""
"10/10/2017","13:25","217CR0026504","ATL","ATL","3100 BLK HARRISON","",""
"10/10/2017","13:31","217CR0026505","SUSPICIOUS ACTIVITY","SUSPICIOUS ACTIVITY","531 S MONTANA ST","",""
"10/10/2017","13:52","217CR0026506","HARASSMENT","HARASSMENT","207 W PARK ST #24","",""
"10/10/2017","14:18","217CR0026507","VEHICLE INSPECTION","VEHICLE INSPECTION","332 W BOARDMAN","",""
"10/10/2017","14:29","217CR0026508","ANIMAL COMPLAINT","ANIMAL COMPLAINT","651 W GRANITE","",""
"10/10/2017","14:41","217CR0026509","PARKING COMPLAINT","PARKING COMPLAINT","2830 YALE AVE","",""
"10/10/2017","14:54","217CR0026510","WELFARE CHECK","WELFARE CHECK","1855 DEWEY BLVD","",""
"10/10/2017","15:21","217CR0026511","ALL OTHER","VIOLATION OF PROTECTION ORDER","1000 S ARIZONA","",""
"10/10/2017","15:52","217CR0026512","T/S","OPERATING WITHOUT CURRENT REGI","PINE AND ADAMS ST","ARREST(s) MADE",""
"10/10/2017","15:55","217CR0026513","T/S","T/S","2400 BLK GRAND","",""
"10/10/2017","15:56","217CR0026514","CIVIL STANDBY","CIVIL STANDBY","119042 SILVER BOW","",""
"10/10/2017","15:59","217CR0026515","DETENTION BUSINESS","DETENTION BUSINESS","************","",""
"10/10/2017","16:36","217CR0026516","ALL OTHER","ALL OTHER","1636 S WARREN AVE","",""
"10/10/2017","16:49","217CR0026517","T/S","OPERATING WITHOUT CURRENT REGI","KENNEDY AVE AND DEWEY BLVD","",""
"10/10/2017","16:59","217CR0026518","CIVIL PAPER SERVICE","CIVIL PAPER SERVICE","62 W BROADWAY","",""
"10/10/2017","17:10","217CR0026519","MEDICAL - EMERGENCY","MEDICAL - EMERGENCY","207 W PARK #7","",""
"10/10/2017","17:26","217CR0026520","ALL OTHER","ALL OTHER","3400 HILL APT 1005","",""
"10/10/2017","17:43","217CR0026521","UNWANTED PERSON","UNWANTED PERSON","************","",""
"10/10/2017","18:10","217CR0026522","ALARM - BURGLARY","ALARM - BURGLARY","************","",""
"10/10/2017","19:39","217CR0026523","DISTURBANCE","DISTURBANCE","312 SILVER BOW HOMES","",""
"10/10/2017","19:52","217CR0026524","ALARM - BURGLARY","ALARM - BURGLARY","************","",""
"10/10/2017","20:05","217CR0026525","ACCIDENT-MHP","ACCIDENT-MHP","HWY 2 // PONDEROSA","",""
"10/10/2017","20:13","217CR0026526","THEFT","THEFT","3901 HARRISON AVE","",""
"10/10/2017","21:08","217CR0026527","DISTURBANCE","PFMA - MINOR INJ/PHYSICAL CONT","815 13TH ST","ARREST(s) MADE",""
"10/10/2017","21:11","217CR0026528","MEDICAL - EMERGENCY","MEDICAL - EMERGENCY","1725 STUART AVE","",""
"10/10/2017","21:15","217CR0026529","FOUND PROPERTY","FOUND PROPERTY","************","",""
"10/10/2017","21:50","217CR0026530","UNKNOWN PROBLEM","UNKNOWN PROBLEM","100 E FRONT","",""
"10/10/2017","22:36","217CR0026531","DISTURBANCE-NOISE","DISTURBANCE-NOISE","1703 SILVERBOW HOMES","",""
"10/10/2017","22:57","217CR0026532","T/S","SPEEDING","PLATINUM AND ARIZONA","",""
"10/10/2017","23:12","217CR0026533","BUSINESS CHECK","CRIMINAL CONTEMPT","1370 HARRISON TOWN PUMP","ARREST(s) MADE",""
"10/10/2017","23:26","217CR0026534","T/S","NO LIABILITY INSURANCE IN EFF.","PAXSON AND ELIZ WARREN","",""
"10/10/2017","23:33","217CR0026535","BUSINESS CHECK","BUSINESS CHECK","3878 PAXSON AVE HAPPY ENDINGS","",""
"10/10/2017","23:47","217CR0026536","SUSPICIOUS ACTIVITY","POSSESSION OF DANGEROUS DRUGS","WALMART SOUTH PARKING LOT","ARREST(s) MADE",""
"10/11/2017","00:20","217CR0026537","JUVENILE MISC","JUVENILE MISC","************","",""
"10/11/2017","00:22","217CR0026538","ATL","ATL","BUTTE AREA","",""
"10/11/2017","00:31","217CR0026539","UNWANTED PERSON","UNWANTED PERSON","************","",""
"10/11/2017","01:43","217CR0026540","CITIZEN AID","CITIZEN AID","1370 HARRISON/TOWN PUMP","",""
"10/11/2017","02:08","217CR0026541","WANTED PERSON","POSSESS DRUG PARAPHERNALIA","700 ROW SILVERBOW HOMES","ARREST(s) MADE",""
"10/11/2017","02:34","217CR0026542","ALL OTHER","ALL OTHER","910 EVANS #D9","",""
"10/11/2017","02:52","217CR0026543","THEFT","THEFT","3499 HARRISON AVE/HAMPTON INN","",""
"10/11/2017","03:08","217CR0026544","T/S","DRIVE WHILE SUSP. OR REVOKED","531 S MONTANA TOWN PUMP","",""
"10/11/2017","04:18","217CR0026545","DRUGS","DRUGS","************","",""
"10/11/2017","04:37","217CR0026546","SUSPICIOUS ACTIVITY","SUSPICIOUS ACTIVITY","2100 FARRAGUT ST ANN CHURCH","",""
"10/11/2017","05:49","217CR0026547","MEDICAL - EMERGENCY","MEDICAL - EMERGENCY","617 W IRON","",""
"10/11/2017","06:50","217CR0026548","DISTURBANCE","DISTURBANCE","1922 TEXAS","",""
 

Subcategories

Sunday the 21st. Affiliate Marketing.
Copyright 2012

©